Estación de San Rafael

Ultimos registro cada 15 minutos 78
Estación Fecha / Hora Temperatura Humedad Lluvia Velocidad Dirección Radiación Presion
78 San Rafael 03-05-2026 19:15 12,6 94,5 0 0 56 0,6 999,2
77 San Rafael 03-05-2026 19:00 12,6 93,8 0 0 56 0,6 999,1
76 San Rafael 03-05-2026 18:45 12,9 92,9 0 0 56 0,6 999,1
75 San Rafael 03-05-2026 18:30 13,1 91,9 0 0 56 0,6 999,2
74 San Rafael 03-05-2026 18:15 13,6 90,3 0 0 56 0,6 998,9
73 San Rafael 03-05-2026 18:00 14,3 87,8 0 0 56 0,6 999
72 San Rafael 03-05-2026 17:45 15,4 84,7 0 0 56 14,4 998,7
71 San Rafael 03-05-2026 17:30 15,8 83,9 0 0 56 54,4 998,6
70 San Rafael 03-05-2026 17:15 16,2 79,9 0 0 56 46,9 999,1
69 San Rafael 03-05-2026 17:00 16,9 75,4 0 0 56 64,4 998,8
68 San Rafael 03-05-2026 16:45 17,7 66,7 0 0 56 64,4 998,7
67 San Rafael 03-05-2026 16:30 18 65,2 0 0 56 123,1 998,4
66 San Rafael 03-05-2026 16:15 18,2 67 0 0 58 163,1 998,4
65 San Rafael 03-05-2026 16:00 18,9 65,8 0 0 62 218,1 998,4
64 San Rafael 03-05-2026 15:45 18,6 66 0 0 55 305,6 998,6
63 San Rafael 03-05-2026 15:30 17,8 68,5 0 0 63 290,6 998,4
62 San Rafael 03-05-2026 15:15 17,5 70,2 0 0 73 340,6 998,3
61 San Rafael 03-05-2026 15:00 17,9 68,2 0 0 81 313,1 998,4
60 San Rafael 03-05-2026 14:45 16,8 72 0 0 81 324,4 998,6
59 San Rafael 03-05-2026 14:30 16 74,1 0 0 81 243,1 998,6
58 San Rafael 03-05-2026 14:15 15,3 74,8 0 0 81 176,9 998,7
57 San Rafael 03-05-2026 14:00 15,2 76 0 0 81 144,4 998,8
56 San Rafael 03-05-2026 13:45 15,2 75,8 0 0 80 126,9 999
55 San Rafael 03-05-2026 13:30 15,5 75,3 0 0 79 156,9 998,9
54 San Rafael 03-05-2026 13:15 15,8 73,6 0 0 79 158,1 999
53 San Rafael 03-05-2026 13:00 16 71,1 0 0 79 189,4 999,3
52 San Rafael 03-05-2026 12:45 15,8 72 0 0 77 201,9 999,2
51 San Rafael 03-05-2026 12:30 15,5 72,1 0 0 79 240,6 999
50 San Rafael 03-05-2026 12:15 15,8 72,3 0 0 79 224,4 999,2
49 San Rafael 03-05-2026 12:00 16,5 70,9 0 0 77 333,1 999,2
48 San Rafael 03-05-2026 11:45 15,5 71,2 0 0 77 235,6 999,3
47 San Rafael 03-05-2026 11:30 15,6 75,9 0 0 77 391,9 999
46 San Rafael 03-05-2026 11:15 14,4 78,7 0 0 79 294,4 999,6
45 San Rafael 03-05-2026 11:00 14,2 78,4 0 0 79 265,6 999,8
44 San Rafael 03-05-2026 10:45 14,3 79,9 0 0 79 283,1 999,7
43 San Rafael 03-05-2026 10:30 14 82 0 0 53 274,4 999,8
42 San Rafael 03-05-2026 10:15 13,8 84,3 0 0 8 581,9 999,8
41 San Rafael 03-05-2026 10:00 11,6 92,5 0 0 41 521,9 999,8
40 San Rafael 03-05-2026 09:45 10,2 97,2 0 0 146 356,9 999,9
39 San Rafael 03-05-2026 09:30 9,3 98,5 0 0 157 238,1 999,9
38 San Rafael 03-05-2026 09:15 7,2 98,5 0 0 140 323,1 999,9
37 San Rafael 03-05-2026 09:00 7 98,8 0 0 136 221,9 999,7
36 San Rafael 03-05-2026 08:45 5,9 99 0 0 136 233,1 999,8
35 San Rafael 03-05-2026 08:30 4,4 99,3 0 0 136 164,4 999,9
34 San Rafael 03-05-2026 08:15 4,2 99,4 0 0 136 111,9 999,3
33 San Rafael 03-05-2026 08:00 2,6 99,5 0 0 136 99,4 999,2
32 San Rafael 03-05-2026 07:45 1 99,7 0 0 136 30,6 999,4
31 San Rafael 03-05-2026 07:30 -0,2 99,7 0 0 136 6,9 999,1
30 San Rafael 03-05-2026 07:15 -0,3 99,6 0 0 136 0,6 999,1
29 San Rafael 03-05-2026 07:00 0 99,7 0 0 136 0,6 999
28 San Rafael 03-05-2026 06:45 -0,1 99,4 0 0 136 0,6 998,7
27 San Rafael 03-05-2026 06:30 0,5 99,6 0 0 136 0,6 998,3
26 San Rafael 03-05-2026 06:15 0,7 99,4 0 0 136 0,6 998,3
25 San Rafael 03-05-2026 06:00 0,2 99,4 0 0 136 0,6 998,3
24 San Rafael 03-05-2026 05:45 0,4 99,4 0 0 136 0,6 998,4
23 San Rafael 03-05-2026 05:30 0,6 99,4 0 0 136 0,6 998,3
22 San Rafael 03-05-2026 05:15 1 99,3 0 0 136 0,6 998,1
21 San Rafael 03-05-2026 05:00 1,2 99,6 0 0 136 0,6 998,4
20 San Rafael 03-05-2026 04:45 0,8 99,3 0 0 136 0,6 998,5
19 San Rafael 03-05-2026 04:30 0,9 99,4 0 0 136 0,6 998,8
18 San Rafael 03-05-2026 04:15 0,8 99,2 0 0 136 0,6 998,9
17 San Rafael 03-05-2026 04:00 1 99,2 0 0 136 0,6 999,1
16 San Rafael 03-05-2026 03:45 1,2 99,1 0 0 136 0,6 998,9
15 San Rafael 03-05-2026 03:30 1,3 98,9 0 0 136 0,6 999
14 San Rafael 03-05-2026 03:15 1,7 98,9 0 0 136 0,6 999,3
13 San Rafael 03-05-2026 03:00 2,3 98,8 0 0 136 0,6 999,3
12 San Rafael 03-05-2026 02:45 2,6 98,9 0 0 136 0,6 999,2
11 San Rafael 03-05-2026 02:30 2,6 98,7 0 0 136 0,6 999,4
10 San Rafael 03-05-2026 02:15 2,6 98,7 0 0 136 0,6 999,2
9 San Rafael 03-05-2026 02:00 2,5 98,7 0 0 136 0,6 999,4
8 San Rafael 03-05-2026 01:45 2 98,5 0 0 136 0,6 999,2
7 San Rafael 03-05-2026 01:30 1,9 98,5 0 0 136 0,6 999,4
6 San Rafael 03-05-2026 01:15 1,8 98,3 0 0 136 0,6 999,2
5 San Rafael 03-05-2026 01:00 1,9 98,5 0 0 136 0,6 999,3
4 San Rafael 03-05-2026 00:45 1,9 98,1 0 0 136 0,6 998,8
3 San Rafael 03-05-2026 00:30 2,3 98,2 0 0 136 0,6 998,9
2 San Rafael 03-05-2026 00:15 2,8 97,9 0 0 136 0,6 998,9
1 San Rafael 03-05-2026 00:00 3,3 98 0 0 136 0,6 998,9